HIMAWARI-9

Last updated on Fri Dec 19 2025 00:02:25 GMT+0000 (Coordinated Universal Time)

1 41836U 16064A 25352.57129630 .00000000 00000+0 00000+0 0 9997 2 41836 0.0198 340.0135 0001906 353.9187 99.9111 1.00268189 33393
UTC large
Height (km)
Speed (km/s)
/
Latitude / Longitude
Inclination (degrees)
Orbital Period (minutes)
Azimuth
Elevation
Range (km)
Doppler Factor

Next 0 passes for location: London (51.5072 / 0.1276)

Sorry there are no passes over London.